www.pogodaiklimat.ru

Погода и климат >> Архив погоды >> Чад >> Сарх


ПОГОДА в Сархе

  • Прогноз погоды в Сархе
  • Монитор погоды в Сархе

АРХИВ ПОГОДЫ в Сархе

Время (UTC), дата Ветер
(напр.,м/с)
 
Видим.   Явления Облачность Т
(С)
Тd
(С)
f
(%)
Тe
(С)
Тes
(С)
Комфортность P
(гПа)
Po
(гПа)
Тmin
(С)
Tmax
(С)
R
(мм)
R24
(мм)
S
(см)
09 18.05 Ю 4 10 км в посл. час гроза {дождь} 10/1 600 м
[Sc Ac As]
+24.0 +21.8 88 +31 +34 очень
душно
1010.7 970.5
12 18.05 Ю 6 10 км {гроза, дождь} 10/5 600 м
[Sc Ac As]
+26.4 +21.2 73 +33 +34 очень
душно
1010.3 970.0 0.4
15 18.05 Ю 5 10 км 10/1 600 м
[Sc Ac As]
+27.5 +20.5 66 +34 +35 очень
душно
1009.2 968.5
18 18.05 штиль 0 10 км 9/0
[Ac As Ci sp]
+26.0 +20.8 73 +33 +33 очень
душно
1008.5 967.8 0.4
21 18.05 штиль 0 10 км 9/0
[Ac trans Ci sp]
+25.0 +21.3 80 +32 +32 очень
душно
1010.8 970.0
00 19.05 штиль 0 10 км 9/0
[Ac trans Ci sp]
+23.5 +21.3 87 +30 +30 очень
душно
1009.7 969.0
03 19.05 штиль 0 10 км 9/0
[Ac trans Ci sp]
+22.5 +21.5 94 +30 +30 очень
душно
1009.9 969.2
06 19.05 ЮЗ 3 10 км 9/0
[Ac As Ci sp]
+23.5 +20.8 85 +29 +30 душно 1010.2 969.4 +22.2 0.4
09 19.05 ЮЗ 3 10 км 9/0
[Ac trans Ci sp]
+29.1 +20.5 60 +36 +47 очень
душно
1010.7 970.2
12 19.05 Ю 4 10 км 9/0
[Ci sp]
+33.2 +19.2 44 +39 +49 очень
душно
1008.5 968.3
15 19.05 ЮЗ 4 10 км 9/0
[Ci sp]
+35.0 +19.6 41 +41 +43 опасность
перегрева
1005.7 965.7
18 19.05 штиль 0 10 км 9/0
[Ci sp]
+32.2 +21.5 53 +40 +40 очень
душно
1006.5 966.3
21 19.05 штиль 0 10 км 9/0
[Ci sp]
+30.2 +21.2 59 +38 +38 очень
душно
1007.6 967.6
00 20.05 штиль 0 10 км 9/0
[Ci sp]
+28.2 +21.8 68 +36 +36 очень
душно
1007.2 967.4
03 20.05 ЮЗ 2 10 км 9/0
[Ci sp]
+27.0 +22.4 76 +35 +35 очень
душно
1006.6 966.8
06 20.05 ЮЗ 4 10 км 9/0
[Ci sp]
+27.4 +22.5 75 +36 +38 очень
душно
1008.2 968.2 +26.0
09 20.05 Ю 6 10 км 9/1 1200 м
[Cu hum Ac trans Ci sp]
+32.5 +20.8 50 +40 +43 очень
душно
1010.8 970.9
15 20.05 ЮВ 4 10 км 9/3 1200 м
[Cu med, cong Ci sp]
+35.5 +19.3 39 +41 +43 опасность
перегрева
1005.2 965.5
18 20.05 Ю 2 10 км 9/1 1500 м
[Cb calv Ac trans Ci sp]
+33.4 +20.5 47 +40 +40 очень
душно
1006.7 966.8
21 20.05 штиль 0 10 км 9/1 1500 м
[Cb calv Ac trans Ci sp]
+31.3 +20.1 51 +38 +38 очень
душно
1008.1 968.3
00 21.05 штиль 0 10 км 9/0
[Ac trans Ci sp]
+28.5 +19.5 58 +34 +34 очень
душно
1008.3 968.5
03 21.05 штиль 0 10 км 9/0
[Ac trans Ci sp]
+27.8 +19.9 62 +34 +34 очень
душно
1008.1 968.3
06 21.05 штиль 0 10 км 9/0
[Ac trans Ci sp]
+28.5 +20.3 61 +35 +37 очень
душно
1009.4 969.4 +26.5
09 21.05 ЮЗ 4 10 км 9/1 1200 м
[Cu hum Ac trans Ci sp]
+33.0 +22.3 53 +42 +48 опасность
перегрева
1009.0 969.3
12 21.05 Ю 3 10 км 9/5 1200 м
[Cb calv Ci sp]
+35.7 +19.2 38 +41 +47 опасность
перегрева
1008.0 968.3
18 21.05 ЮЗ 7 10 км 9/1 1500 м
[Cb cap Ac cuf Ci sp]
+30.6 +16.4 42 +34 +34 очень
душно
1006.7 966.6
21 21.05 СЗ 3 10 км гроза, ливневой дождь 10/6 600 м
[Cb cap Ac As]
+25.0 +20.5 76 +31 +31 очень
душно
1007.8 967.7
00 22.05 С 2 10 км гроза без осадков 10/5 600 м
[Cb cap Ac As]
+26.0 +20.8 73 +33 +33 очень
душно
1007.8 967.9 0.5
03 22.05 СВ 2 10 км в посл. час гроза 9/3 600 м
[Sc Ac As Ci sp]
+25.2 +22.3 84 +33 +33 очень
душно
1008.4 968.6
06 22.05 З 2 10 км {гроза} 9/0
[Ac As Ci sp]
+25.6 +21.6 79 +33 +34 очень
душно
1009.8 969.5 +24.7 0.5
09 22.05 СВ 2 10 км 9/1 1200 м
[Cu hum Ac trans Ci sp]
+32.5 +21.2 51 +40 +49 очень
душно
1010.6 970.3
12 22.05 В 5 8000 м гроза, ливневой дождь 9/4 1200 м
[Cb cap Ac As Ci sp]
+26.3 +22.2 78 +34 +38 очень
душно
1010.0 969.5 1
15 22.05 ЮВ 4 10 км в посл. час гроза {дождь} 9/3 600 м
[Cb cap Ac As Ci sp]
+29.7 +21.1 60 +37 +39 очень
душно
1006.9 966.6
18 22.05 штиль 0 10 км {гроза, дождь} 9/3 600 м
[Cb cap Ac As Ci sp]
+28.5 +21.7 67 +37 +37 очень
душно
1006.7 966.7 1
21 22.05 Ю 1 10 км 9/0
[Ac trans Ci sp]
+27.5 +22.4 74 +36 +36 очень
душно
1007.9 968.0
03 23.05 штиль 0 10 км 9/0
[Ac trans Ci sp]
+26.0 +21.9 78 +33 +33 очень
душно
1007.4 967.2
06 23.05 штиль 0 10 км 9/0
[Ac trans Ci sp]
+26.0 +23.1 84 +35 +37 очень
душно
1009.9 969.5 +2.5 1
09 23.05 Ю 3 10 км 9/0
[Ac trans Ci sp]
+31.5 +22.2 58 +41 +52 опасность
перегрева
1010.7 970.5
12 23.05 Ю 4 10 км 9/1 1200 м
[Cu hum Ci sp]
+34.9 +20.5 43 +41 +51 опасность
перегрева
1008.8 968.9
15 23.05 ЮЗ 3 10 км 9/1 1200 м
[Cu hum Ci sp]
+35.7 +20.1 40 +42 +45 опасность
перегрева
1005.6 965.8
18 23.05 штиль 0 10 км 9/1 1500 м
[Cb cap Ac cuf Ci sp]
+32.5 +21.0 51 +40 +40 очень
душно
1006.4 966.4
21 23.05 ЮЗ 2 10 км 9/0
[Ci sp]
+30.0 +21.9 62 +39 +39 очень
душно
1006.7 966.9
00 24.05 ЮЗ 2 10 км 9/0
[Ci sp]
+28.0 +22.2 71 +37 +37 очень
душно
1006.2 966.5
03 24.05 штиль 0 10 км 9/0
[Ac trans Ci sp]
+27.0 +22.4 76 +35 +35 очень
душно
1006.2 966.5
06 24.05 Ю 2 10 км 9/0
[Ac trans Ci sp]
+27.5 +22.4 74 +36 +38 очень
душно
1007.6 967.7 +26.0
09 24.05 Ю 5 10 км 9/0
[Ci sp]
+33.0 +20.9 49 +40 +47 очень
душно
1008.4 968.5
12 24.05 Ю 3 10 км 9/4 1200 м
[Cu med, cong Ci sp]
+35.6 +21.9 45 +44 +52 опасность
перегрева
1006.8 967.1
15 24.05 Ю 4 10 км 9/5 1200 м
[Cb calv Ci sp]
+36.5 +20.4 39 +43 +44 опасность
перегрева
1004.7 965.0
18 24.05 СЗ 2 10 км гроза, ливневой дождь 10/5 600 м
[Cb cap Ac As]
+27.5 +22.4 74 +36 +36 очень
душно
1006.4 966.2 2
21 24.05 штиль 0 10 км зарница {гроза, дождь} 9/1 1500 м
[Cb cap Ac As Ci sp]
+28.3 +22.9 73 +38 +38 очень
душно
1007.6 967.8
00 25.05 штиль 0 10 км {гроза, дождь} 9/0
[Ac trans Ci sp]
+27.8 +22.9 75 +37 +37 очень
душно
1007.4 967.7
03 25.05 штиль 0 10 км 9/0
[Ci sp]
+27.3 +22.8 76 +36 +36 очень
душно
1007.4 967.7

 

Местоположение метеостанции Сарх (Чад): широта 9.15 долгота 18.38 высота над уровнем моря 365 м.

В архиве по умолчанию представлена погода в Сархе за последнюю неделю. Архивные данные за месяц целиком и за предыдущие месяцы, начиная с января 2011 года, Вы можете получить, выбрав интересующий диапазон дат из раскрывающегося списка и нажав кнопку "Ввод!".


*Определитесь, кто Вы:
робот инопланетянин человек

Внимание! Время в таблицах - всемирное. Для получения местного времени необходимо прибавить поправку, которая равна 1 ч.

Смотрите также архив погоды в соседних городах и на ближайших метеорологических станциях:

Погода в Буссо (Чад) (234 км)
Погода в Мунду (Чад) (262 км)
Погода в Ам-Тиман (Чад) (295 км)
Погода в Босангоа (ЦАР) (315 км)
Погода в Монго (Чад) (339 км)
Погода в Пала (Чад) (380 км)
Погода в Бокоро (Чад) (388 км)
Погода в Бамбари (ЦАР) (444 км)
Погода в Ати (Чад) (453 км)
Погода в Буаре (ЦАР) (466 км)

Пояснения к столбцам:

Ветер - указаны скорость ветра в м/с - средняя за 10 мин, порывы в срок и между сроками (в фигурных скобках) и направление, откуда дует ветер: С - северный, СВ - северо-восточный, В - восточный, ЮВ - юго-восточный, Ю - южный, ЮЗ - юго-западный, З - западный, СЗ - северо-западный.
Видимость - горизонтальная дальность видимости в метрах или километрах. При видимости от 1 до 10 км при отсутствии осадков обычно наблюдается дымка, при ухудшении видимости до 1 км и менее - туман. В сухую погоду видимость может ухудшаться дымом, пылью или мглою.
Явления - указаны атмосферные явления, наблюдавшиеся в срок или в последний час перед сроком; фигурными скобками обозначены явления, наблюдавшиеся между сроками (за 1-3 часа до срока); квадратными скобками обозначены град или гололедные отложения с указанием их диаметра в мм.
Облачность - указаны через наклонную черту общая и нижняя облачность в баллах и высота нижней границы облаков в метрах; квадратными скобками обозначены формы облаков: Ci - перистые, Cs - перисто-слоистые, Cc - перисто-кучевые, Ac - высококучевые, As - высокослоистые, Sc - слоисто-кучевые, Ns - слоисто-дождевые, Cu - кучевые, Cb - кучево-дождевые. Подробнее классификацию облаков см. в Атласе облаков (PDF).
T - Температура воздуха - температура, измеренная на высоте 2 м над землей.
Td - Температура точки росы - температура, при понижении до которой содержащийся в воздухе водяной пар достигнет насыщения.
f - Относительная влажность воздуха - влажноcть воздуха, измеренная на высоте 2 м над землей.
Te - Эффективная температура - температура, которую ощущает одетый по сезону человек в тени. Характеристика душности погоды. При расчете учитывается влияние влажности воздуха и скорости ветра на теплоощущения человека.
Tes - Эффективная температура на солнце - температура, которую ощущает человек, с поправкой на солнечный нагрев. Характеристика знойности погоды. Зависит от высоты солнца над горизонтом, облачности и скорости ветра. Ночью, в пасмурную погоду, а также при ветре 12 м/с и более поправка равна нулю.
P - Атмосферное давление - приведенное к уровню моря атмосферное давление.
Po - Атмосферное давление - измеренное на уровне метеостанции атмосферное давление.
Tmin - Минимальная температура - минимум температуры воздуха на высоте 2 м над землей.
Tmax - Максимальная температура - максимум температуры воздуха на высоте 2 м над землей.
R - Количество осадков - Количество выпавших осадков за период времени, мм. При наведении курсора мыши на число - период времени, за который выпало указанное количество осадков.
R24 - Количество осадков - Количество выпавших осадков за 24 часа, мм.
S - Снежный покров - Высота снежного покрова, см. При наведении курсора мыши на число - состояние снежного покрова и степень покрытия местности в баллах.